Location: Chmeln�
(49.6483°N, 14.9871°E)
Time: 03:15:27
(UTC+00:00)

Cosmos 372 Rocket - Pass Details

Date: 18 September 2020
Orbit: 739 x 767 km, 74.1° (Epoch: 24 October)

Event Time Altitude Azimuth Distance (km) Brightness Sun altitude
Rises 18:44:06 0° 199° (SSW) 3,223 7.2 -16.2°
Reaches altitude 10° 18:46:28 10° 199° (SSW) 2,300 6.4 -16.6°
Maximum altitude 18:51:42 84° 112° (ESE) 776 3.9 -17.4°
Drops below altitude 10° 18:56:57 10° 25° (NNE) 2,305 6.5 -18.2°
Sets 18:59:19 0° 25° (NNE) 3,231 7.3 -18.5°
